Observations for Trim Market St
| Time | AQI | Temp °C | Hum % | Pres Pa | CO μg/m³ | H₂S μg/m³ | NO μg/m³ | NO₂ μg/m³ | O₃ μg/m³ | SO₂ μg/m³ | PM1 μg/m³ | PM2.5 μg/m³ | PM10 μg/m³ |
|---|---|---|---|---|---|---|---|---|---|---|---|---|---|
| Tuesday 18 August 2026 | |||||||||||||
| 05:09 | 2 | 17.6 | 75 | 33,287 | 0.09 | 0 | 1.89 | 5.39 | 69.36 | 0 | 1.43 | 2.81 | 5.15 |
| 05:07 | 2 | 17.7 | 75 | 33,954 | 0.09 | 0 | 1.87 | 5.28 | 69.31 | 0 | 0.71 | 2.34 | 5.14 |
| 05:06 | 2 | 17.7 | 75 | 34,356 | 0.08 | 0 | 1.88 | 5.83 | 70.73 | 0 | 0.71 | 2.34 | 4.55 |
| 05:05 | 2 | 17.7 | 75 | 34,793 | 0.1 | 0 | 1.87 | 5.94 | 75.78 | 0 | 0.71 | 3.3 | 5.74 |
| 05:04 | 2 | 17.7 | 75 | 35,267 | 0.08 | 0 | 1.85 | 6.49 | 75.66 | 0 | 1.43 | 3.3 | 7.53 |
| 05:03 | 2 | 17.7 | 75 | 35,765 | 0.09 | 0 | 1.86 | 4.98 | 68.91 | 0 | 0 | 2.35 | 5.14 |
| 05:02 | 2 | 17.7 | 75 | 36,333 | 0.1 | 0 | 1.87 | 6.41 | 74.78 | 0 | 1.43 | 3.79 | 6.33 |
| 05:01 | 2 | 17.7 | 75 | 36,977 | 0.09 | 0 | 1.86 | 5.32 | 76.33 | 0 | 0.71 | 1.87 | 4.54 |
| 04:59 | 2 | 17.7 | 75 | 38,310 | 0.09 | 0 | 1.87 | 5.69 | 71.07 | 0 | 1.43 | 3.32 | 6.33 |
| 04:55 | 2 | 17.7 | 74 | 40,641 | 0.09 | 0 | 1.88 | 6.37 | 78.21 | 0 | 0.71 | 2.85 | 5.73 |
| 04:52 | 2 | 17.8 | 74 | 41,963 | 0.09 | 0 | 1.87 | 5.46 | 66.75 | 0 | 1.43 | 3.34 | 5.73 |
| 04:44 | 2 | 17.8 | 74 | 43,358 | 0.08 | 0 | 1.86 | 4.83 | 63.9 | 0 | 0.71 | 1.9 | 3.92 |
| 04:43 | 2 | 17.8 | 74 | 43,375 | 0.07 | 0 | 1.79 | 5.2 | 65.7 | 0 | 1.43 | 2.86 | 5.12 |
| 04:39 | 2 | 17.8 | 74 | 43,352 | 0.07 | 0 | 1.85 | 4.61 | 58.57 | 0 | 2.14 | 2.86 | 5.12 |
| 04:38 | 2 | 17.8 | 74 | 43,515 | 0.07 | 0 | 1.85 | 5.25 | 68.72 | 0 | 1.43 | 2.87 | 5.72 |
| 04:37 | 2 | 17.8 | 74 | 43,719 | 0.08 | 0 | 1.84 | 5.16 | 70.82 | 0 | 1.43 | 2.39 | 4.52 |
| 04:36 | 2 | 17.8 | 74 | 43,810 | 0.08 | 0 | 1.86 | 4.18 | 61.51 | 0 | 1.43 | 4.31 | 8.74 |
| 04:35 | 2 | 17.8 | 74 | 43,893 | 0.09 | 0 | 1.83 | 5.07 | 61.76 | 0 | 1.43 | 2.87 | 6.93 |
| 04:34 | 2 | 17.8 | 74 | 43,978 | 0.07 | 0 | 1.78 | 3.96 | 57.88 | 0 | 1.43 | 2.87 | 5.12 |
| 04:33 | 2 | 17.8 | 74 | 43,992 | 0.08 | 0 | 1.83 | 4.63 | 61.15 | 0 | 0.71 | 3.35 | 6.32 |